Location: Pace/Milton
(30.6162°N, 87.1503°W)
Time: 11:14:44
(UTC-06:00)

Envisat - Pass Details

Date: 08 December 2021
Orbit: 764 x 766 km, 98.2° (Epoch: 23 January)

Event Time Altitude Azimuth Distance (km) Brightness Sun altitude
Rises 03:48:25 0° 29° (NNE) 3,233 6.5 -34.8°
Reaches altitude 10° 03:51:11 10° 43° (NE) 2,302 5.8 -34.2°
Maximum altitude 03:55:11 23° 96° (E) 1,565 5.2 -33.3°
Drops below altitude 10° 03:59:11 10° 149° (SSE) 2,291 5.9 -32.5°
Sets 04:01:54 0° 163° (SSE) 3,213 6.5 -31.9°
